Find Starlink 1226

NORAD ID: 45229 Int'l Des: 2020-012 Owner: SPXS Country: US Constellation: starlink operational
LEOCIRCULAR

Live-Position

3D-Globus wird geladen...

Über Starlink 1226

Beschreibung wird geladen...

Nächste Überflüge

Passes for default location (London). Set your location on the main map for personalized predictions.

Höhenverlauf

Loading altitude history...

Zweizeiliger Elementsatz

1 45229U 20012BD 26110.41886786 .00029377 00000-0 75545-3 0 9992
2 45229 53.1562 163.3413 0002687 36.2468 323.8718 15.39050417341824
Epoch: 20. Apr. 2026 • Age: 7 hours

Aktueller Status

Höhe 453.6 km
Geschwindigkeit 7.65 km/s
Subsatellitenpunkt 51.32°N, 132.54°E
Startdatum 17. Feb. 2020
Alter 6.1 years
Typ internet

Technische Details

Klassifizierung Payload
Masse 260.00 kg
Trockenmasse 248.00 kg
Gesamtmasse 260.00 kg
Länge 0.20 m
Durchmesser 2.80 m
Spannweite 9.00 m
Form Box + pan
Hersteller SPXS
Bus-Typ Starlink
Phasenstatus In Orbit
Besitzer/Staat SPXS/US

Most Searched